Location: 476 Grange Obs.
(45.1420°N, 7.1420°E)
Time: 12:07:29
(UTC+02:00)

ISS - Visible Passes

Search period start: 28 April 2017 00:00
Search period end: 08 May 2017 00:00
Orbit: 401 x 409 km, 51.6° (Epoch: 29 April)

Date Brightness Start Highest point End Pass type
(mag) Time Alt. Az. Time Alt. Az. Time Alt. Az.
05 May -1.6 05:35:39 10° S 05:38:03 19° SE 05:40:26 10° E visible
06 May -1.1 04:45:22 10° SE 04:46:09 11° SE 04:46:55 10° ESE visible
07 May -2.9 05:26:55 10° SW 05:30:01 40° SE 05:33:07 10° ENE visible
